Wind_Speed
54 53 52 51 50 49 48 48 45 44 43 42 41 40 38 37 36 36 34 33 32 31 31 30 30 30 30 30 31 31 32 33 33 33 33 33 34 34 35 35 35 36 36
54 52 51 53 52 50 49 48 49 46 44 43 42 41 40 39 39 38 37 36 35 34 33 32 32 32 32 33 33 34 34 34 35 35 35 34 34 35 35 36 37 37 38
53 53 52 51 51 51 51 50 49 47 44 44 45 44 42 41 40 40 38 38 37 35 35 35 35 35 34 35 36 36 36 36 37 37 36 36 35 34 35 36 37 39 39
52 53 52 52 51 49 50 50 49 49 46 45 46 45 44 42 41 41 40 41 40 39 37 37 37 36 36 36 37 38 38 37 37 37 38 38 37 38 37 38 39 40 41
52 53 52 53 53 50 50 49 49 48 48 48 47 45 45 44 43 42 41 41 40 40 40 40 39 38 38 37 38 38 38 39 39 39 39 39 40 41 41 40 40 40 41
51 52 52 53 53 52 51 49 49 49 48 48 46 45 46 45 45 44 44 44 43 42 42 40 39 39 38 38 38 39 40 40 41 41 41 42 42 43 43 42 41 41 43
52 51 51 52 52 51 51 50 50 50 49 48 47 46 46 46 46 46 46 46 45 44 44 43 41 40 40 40 41 41 42 42 43 43 43 44 44 45 45 45 45 45 44
51 51 50 51 51 50 50 51 49 49 50 49 48 48 47 47 46 46 46 46 46 45 45 44 44 43 44 44 43 44 44 45 45 45 45 45 45 46 47 47 46 45 45
48 48 50 50 50 49 48 48 48 48 48 48 48 48 48 47 45 45 45 46 46 46 45 45 45 45 45 45 46 47 47 47 46 46 46 46 47 47 47 46 46 46 45
44 45 46 48 48 48 47 47 48 47 47 48 48 49 48 46 45 45 45 45 45 45 45 45 44 44 45 45 45 45 46 45 45 45 46 47 46 46 47 48 48 48 48
42 44 44 45 47 48 48 48 47 47 48 48 48 48 48 47 46 45 44 44 45 47 47 46 46 46 44 44 46 47 46 46 46 46 46 47 47 47 47 47 48 48 48
38 41 42 43 45 46 48 48 48 48 47 48 47 47 48 48 46 45 44 44 45 46 46 46 46 47 47 47 47 47 47 46 46 46 46 46 46 46 47 47 47 47 47
34 37 39 41 42 44 46 46 46 47 47 47 47 47 47 47 47 47 46 46 46 46 47 48 48 47 46 46 46 46 46 46 46 46 46 47 46 46 46 46 46 46 46
31 33 36 38 40 41 43 44 45 47 47 47 47 48 48 48 49 49 49 48 48 46 46 46 47 47 47 47 47 47 47 47 46 46 46 46 46 46 45 45 45 45 45
29 31 32 34 37 39 41 42 44 45 46 46 46 47 48 48 48 49 48 48 47 46 45 45 45 46 46 46 46 46 45 45 45 46 47 46 46 46 46 46 46 46 45
27 30 33 34 36 37 39 40 41 43 45 46 46 46 47 47 47 48 48 47 46 46 45 45 45 45 45 45 46 46 46 46 46 46 46 46 46 46 45 45 45 44 44
28 29 31 33 35 37 38 40 41 41 42 44 44 44 45 45 45 46 45 45 45 45 45 45 45 45 45 45 45 45 45 46 45 45 45 44 44 44 43 43 42 42 42
27 29 31 31 33 36 37 38 40 40 41 42 43 43 43 43 43 43 44 44 45 45 44 44 43 43 44 44 44 44 44 43 43 43 43 43 42 41 41 41 41 40 40
27 28 30 31 33 35 36 37 38 39 40 41 42 42 42 42 42 43 43 43 43 43 43 43 43 43 42 42 43 43 43 43 43 42 42 41 41 40 40 40 40 40 40
27 29 30 32 33 34 35 36 37 39 39 39 40 40 40 41 42 42 42 42 42 42 42 42 42 42 42 42 43 43 43 42 41 41 41 40 40 40 39 39 39 39 39
28 29 30 31 32 33 34 35 37 38 38 38 38 39 39 40 40 40 41 40 40 40 40 41 41 42 42 42 42 41 41 41 40 40 40 40 40 40 39 39 39 38 38
29 30 30 30 31 32 33 34 36 37 37 37 38 38 39 39 39 39 40 40 40 41 41 41 41 41 41 41 40 40 40 40 40 40 40 40 39 39 38 38 38 37 36
29 31 32 31 31 31 32 33 34 35 36 37 38 39 39 39 39 40 40 40 41 40 39 40 40 40 40 40 40 40 40 40 40 39 39 38 38 37 37 36 36 35 35
28 28 30 31 31 31 31 32 33 34 35 35 36 37 38 39 38 39 39 39 40 40 39 39 39 39 39 39 40 40 40 40 39 38 38 38 37 37 36 36 35 34 34
27 27 27 29 30 31 31 31 32 32 33 34 35 36 37 37 38 38 38 38 39 39 38 38 38 38 38 39 39 39 39 38 38 38 37 37 36 36 36 35 34 33 33
27 27 27 27 28 29 30 30 31 31 33 33 34 36 36 37 37 38 37 38 38 38 38 38 38 38 38 39 39 38 38 38 37 37 36 36 35 35 35 34 33 33 32
Wind_Direction
219 220 221 222 222 223 223 223 221 224 225 226 226 229 233 235 238 239 240 242 244 248 251 254 257 259 261 264 267 270 273 275 277 278 280 282 283 285 286 287 288 290 292
221 222 223 224 223 224 226 226 226 227 230 230 230 231 234 237 238 239 241 243 246 248 250 254 257 260 263 265 268 270 272 275 277 278 279 281 283 285 287 287 288 290 291
220 222 224 224 226 226 226 227 229 229 230 232 233 234 236 238 240 241 243 245 246 248 252 255 258 262 264 266 268 270 272 275 276 278 279 281 282 284 286 288 289 290 290
220 222 225 227 228 228 230 230 231 232 233 234 235 237 238 240 242 243 245 247 248 249 252 256 259 262 264 267 269 270 272 274 276 279 280 280 282 284 285 287 289 289 290
221 222 225 228 229 231 232 232 233 234 234 236 237 239 239 241 243 244 245 247 248 251 254 258 260 261 263 266 268 271 274 275 276 278 280 281 283 285 286 287 288 288 290
224 225 227 228 230 232 233 236 237 237 237 238 238 240 242 244 245 246 247 248 251 254 257 258 259 261 265 267 269 273 275 276 277 279 280 281 283 285 287 288 289 289 290
228 227 228 230 232 233 234 236 238 238 239 240 242 242 243 246 246 247 249 251 253 255 257 258 261 263 265 268 271 272 274 276 277 279 281 282 283 284 287 288 289 289 290
230 229 230 231 233 234 234 235 237 238 240 242 243 245 246 247 249 250 251 252 253 256 258 260 262 264 267 270 272 272 274 276 278 280 281 282 284 285 287 288 288 289 289
231 231 231 232 233 234 234 234 236 238 240 242 244 245 246 248 249 250 251 252 254 256 259 262 265 265 267 270 271 273 274 276 278 280 281 283 285 286 287 288 289 289 290
233 232 233 233 234 235 236 235 236 237 240 242 244 246 247 249 250 251 253 254 254 256 259 262 264 265 267 270 271 272 274 276 279 281 282 283 284 286 288 287 288 289 290
233 232 234 235 236 237 238 239 239 239 240 242 244 246 248 249 250 252 254 255 257 258 260 262 263 265 267 271 273 275 277 278 280 282 283 284 285 285 286 287 288 288 289
235 234 234 235 236 238 239 241 242 241 241 243 244 246 248 250 252 254 255 257 259 260 261 262 265 268 270 272 274 275 277 279 280 282 283 284 285 285 286 287 287 288 288
235 234 235 236 237 238 239 240 241 243 243 244 246 248 249 252 253 255 257 258 260 262 263 264 266 268 270 272 274 276 278 279 280 282 283 284 285 285 285 286 286 286 287
237 236 236 238 239 240 241 242 242 244 245 246 248 249 251 252 254 256 258 260 261 263 265 267 268 268 270 272 274 276 278 279 280 281 283 284 284 285 285 285 286 286 286
238 238 239 239 240 241 242 244 244 245 245 246 248 249 251 253 255 257 259 260 262 263 264 266 268 269 271 273 274 275 277 279 280 282 284 284 284 285 284 285 285 286 285
241 240 240 240 241 243 243 244 246 246 246 247 249 250 251 253 254 256 258 260 261 262 264 266 268 269 271 272 274 276 277 279 281 282 283 283 284 285 285 285 285 286 285
244 243 243 243 243 244 245 246 247 247 247 246 248 249 251 252 254 255 257 258 260 262 265 266 268 270 271 273 275 278 279 280 281 282 283 283 284 284 285 286 286 286 285
247 247 247 247 246 246 246 247 247 248 248 247 248 249 250 252 253 255 257 258 260 262 264 266 268 270 271 273 275 277 278 279 280 281 282 283 283 284 285 285 286 285 285
249 249 249 248 248 247 248 248 248 247 248 248 248 249 250 252 254 256 257 259 260 262 263 266 268 269 271 273 274 276 277 279 280 280 281 282 282 284 285 285 286 286 285
252 251 252 252 251 249 249 249 249 247 247 248 249 250 250 252 253 254 256 258 259 261 263 265 267 269 271 272 274 275 277 278 279 279 280 281 283 284 285 286 286 286 285
255 254 255 255 254 253 252 251 249 249 248 248 249 250 251 252 253 253 254 256 259 261 263 264 266 269 270 272 274 275 276 277 278 280 281 282 283 284 284 285 285 285 285
259 257 257 257 256 255 253 250 249 249 250 249 249 250 251 252 253 254 255 256 258 260 262 264 267 268 270 272 274 274 275 277 279 280 281 281 283 284 284 284 284 285 284
262 260 258 257 256 255 253 251 250 250 250 250 250 250 251 252 253 255 256 257 259 261 263 266 267 267 269 271 272 273 275 277 279 280 280 281 282 283 283 283 283 283 283
265 263 261 259 257 255 254 252 251 250 249 250 250 250 250 251 253 254 256 257 259 261 263 264 265 267 268 270 271 273 275 277 277 278 280 281 281 282 282 282 282 281 282
266 265 263 261 258 256 255 253 251 251 250 250 250 250 250 251 252 254 255 257 259 261 262 264 265 266 268 270 272 273 275 276 277 278 279 280 280 280 281 281 281 281 281
267 264 263 261 259 257 256 254 253 253 252 251 251 251 252 252 253 254 255 256 258 260 262 263 265 266 268 270 271 272 273 275 276 277 278 278 280 280 280 280 281 280 280
Height
5723 5730 5737 5743 5749 5756 5763 5769 5774 5779 5784 5789 5793 5798 5802 5806 5810 5812 5815 5818 5820 5822 5824 5826 5827 5828 5829 5830 5831 5831 5832 5832 5832 5833 5832 5832 5831 5830 5829 5828 5826 5825 5823
5717 5724 5731 5736 5742 5748 5755 5761 5767 5772 5777 5782 5787 5791 5795 5798 5802 5805 5807 5810 5813 5815 5817 5819 5820 5821 5822 5823 5824 5824 5825 5825 5825 5825 5825 5825 5825 5823 5821 5820 5818 5817 5815
5711 5718 5724 5730 5736 5742 5748 5754 5759 5764 5769 5774 5778 5782 5786 5790 5793 5797 5801 5803 5805 5807 5809 5811 5813 5814 5815 5816 5816 5817 5817 5817 5817 5817 5817 5816 5816 5815 5814 5812 5811 5809 5807
5704 5711 5717 5723 5729 5735 5741 5746 5750 5756 5761 5765 5770 5774 5778 5783 5787 5790 5792 5795 5797 5799 5801 5803 5804 5806 5807 5808 5808 5808 5809 5809 5809 5808 5808 5808 5807 5807 5807 5805 5803 5801 5799
5696 5703 5709 5715 5721 5726 5732 5737 5743 5748 5753 5757 5762 5766 5770 5774 5777 5780 5783 5786 5788 5790 5792 5794 5796 5797 5798 5799 5799 5800 5800 5800 5800 5800 5799 5798 5798 5797 5797 5797 5795 5792 5790
5688 5695 5701 5707 5712 5718 5724 5729 5735 5740 5744 5749 5753 5756 5761 5765 5768 5771 5774 5776 5779 5781 5783 5784 5786 5787 5788 5789 5790 5790 5791 5791 5791 5790 5790 5789 5788 5787 5786 5786 5785 5783 5781
5680 5687 5693 5699 5705 5711 5716 5721 5726 5731 5735 5740 5744 5748 5752 5755 5758 5761 5764 5767 5770 5772 5774 5776 5777 5778 5779 5780 5781 5781 5781 5781 5781 5781 5780 5779 5778 5777 5776 5775 5774 5773 5772
5673 5679 5685 5691 5696 5701 5707 5712 5717 5722 5727 5731 5735 5739 5742 5746 5749 5752 5755 5758 5760 5763 5765 5766 5768 5769 5770 5771 5771 5772 5771 5771 5771 5771 5770 5769 5768 5767 5766 5764 5763 5762 5761
5666 5671 5677 5682 5687 5692 5698 5703 5708 5713 5718 5722 5726 5729 5733 5736 5739 5742 5745 5748 5750 5753 5755 5756 5758 5759 5760 5760 5761 5761 5761 5761 5761 5761 5760 5759 5758 5756 5755 5753 5752 5751 5750
5657 5663 5668 5673 5678 5683 5689 5694 5699 5703 5708 5712 5716 5720 5723 5727 5730 5733 5736 5738 5741 5743 5745 5746 5748 5749 5750 5750 5751 5751 5751 5750 5750 5750 5749 5748 5747 5746 5744 5742 5740 5739 5737
5648 5654 5659 5664 5669 5674 5679 5684 5689 5694 5698 5702 5706 5710 5713 5717 5720 5723 5725 5728 5730 5732 5734 5736 5737 5738 5739 5740 5741 5741 5740 5740 5739 5739 5738 5737 5736 5734 5733 5731 5729 5727 5725
5640 5645 5651 5656 5661 5665 5670 5675 5679 5684 5688 5692 5696 5700 5703 5707 5710 5712 5715 5717 5719 5721 5723 5725 5726 5727 5729 5729 5730 5730 5730 5729 5729 5728 5727 5726 5724 5723 5721 5719 5718 5716 5714
5633 5638 5643 5647 5652 5656 5661 5665 5670 5674 5678 5682 5686 5690 5693 5697 5699 5702 5705 5707 5709 5711 5713 5714 5716 5717 5718 5718 5719 5719 5719 5718 5717 5717 5716 5714 5713 5711 5710 5708 5706 5704 5702
5626 5630 5635 5639 5643 5647 5651 5656 5660 5664 5668 5672 5676 5680 5683 5686 5689 5692 5694 5697 5699 5700 5702 5703 5705 5706 5707 5707 5708 5708 5707 5707 5706 5705 5704 5703 5702 5700 5698 5697 5695 5693 5691
5620 5624 5628 5631 5635 5639 5643 5647 5651 5654 5658 5662 5666 5669 5672 5675 5678 5681 5684 5686 5688 5689 5691 5692 5694 5695 5696 5696 5696 5696 5696 5695 5695 5694 5693 5691 5690 5688 5687 5685 5683 5681 5680
5614 5617 5621 5624 5627 5630 5634 5637 5641 5645 5648 5652 5655 5658 5662 5665 5668 5670 5673 5675 5677 5679 5680 5681 5683 5683 5684 5685 5685 5685 5685 5684 5683 5682 5681 5680 5678 5677 5675 5673 5671 5670 5668
5608 5611 5613 5616 5619 5622 5625 5628 5631 5634 5637 5641 5645 5648 5651 5653 5656 5659 5662 5664 5666 5668 5669 5670 5671 5672 5673 5673 5674 5673 5673 5673 5672 5671 5670 5669 5667 5665 5664 5662 5660 5658 5657
5602 5604 5606 5608 5610 5613 5616 5618 5621 5624 5627 5630 5634 5637 5640 5643 5646 5648 5651 5653 5655 5657 5658 5659 5660 5661 5662 5662 5662 5662 5662 5661 5661 5660 5659 5657 5656 5654 5653 5651 5649 5647 5646
5595 5596 5598 5600 5602 5604 5606 5609 5612 5614 5617 5620 5623 5626 5629 5632 5635 5638 5640 5642 5644 5646 5647 5648 5649 5650 5651 5651 5652 5652 5651 5651 5650 5649 5648 5647 5645 5644 5642 5640 5639 5637 5635
5589 5590 5590 5592 5593 5595 5597 5599 5601 5604 5607 5610 5613 5616 5619 5622 5625 5627 5629 5632 5633 5635 5636 5638 5639 5639 5640 5641 5641 5641 5640 5640 5639 5638 5637 5636 5634 5633 5631 5630 5628 5626 5625
5581 5582 5582 5583 5584 5586 5587 5589 5591 5594 5597 5600 5603 5606 5609 5612 5614 5617 5619 5621 5623 5625 5626 5627 5628 5629 5629 5630 5630 5630 5629 5629 5628 5627 5626 5625 5623 5622 5620 5619 5617 5616 5614
5573 5574 5574 5575 5576 5577 5578 5580 5582 5585 5587 5590 5593 5596 5599 5601 5604 5606 5608 5610 5612 5614 5615 5616 5617 5617 5618 5619 5619 5619 5619 5618 5617 5616 5615 5614 5613 5611 5610 5608 5607 5605 5604
5565 5565 5566 5566 5567 5568 5569 5571 5573 5575 5577 5580 5583 5586 5588 5590 5593 5595 5598 5599 5601 5602 5603 5605 5606 5606 5607 5607 5608 5608 5608 5607 5607 5606 5605 5603 5602 5601 5599 5598 5596 5595 5594
5556 5556 5556 5557 5558 5559 5560 5562 5564 5566 5568 5570 5573 5575 5578 5580 5582 5584 5586 5588 5590 5591 5593 5594 5595 5595 5596 5597 5597 5597 5597 5596 5596 5595 5594 5593 5591 5590 5589 5588 5586 5585 5584
5548 5548 5548 5548 5549 5550 5551 5553 5555 5556 5558 5561 5563 5565 5567 5569 5572 5574 5575 5577 5579 5580 5582 5583 5584 5585 5585 5586 5586 5586 5586 5585 5585 5584 5583 5582 5581 5580 5579 5577 5576 5575 5574
5539 5539 5540 5540 5541 5541 5542 5544 5545 5547 5549 5551 5553 5555 5557 5559 5561 5563 5564 5566 5568 5569 5571 5572 5573 5574 5574 5575 5575 5575 5574 5574 5574 5573 5572 5571 5570 5569 5568 5567 5566 5566 5565